Details for Air Canada Rouge at CYYZ




Go Back


Latest METAR
Local Time

CYYZ 181300Z 32007KT 12SM FEW120 FEW250 22/19 A2985 RMK AC1CI1 SLP107 DENSITY ALT 1700FT
18/09/2018, 09:27:42

Description
Results
Air Canada Rouge Logo
Number of Pilots based at CYYZ
0 Pilots Based here
Number of Air Canada Rouge Flights Departed from CYYZ
0 Flights Departed
Number of Air Canada Rouge Flights Arrived at CYYZ
1 Flights Arrived
Number of Air Canada Rouge Schedules Departing from CYYZ
87 Schedules
Number of Air Canada Rouge Schedules Arriving at CYYZ
92 Schedules
Number of Air Canada Rouge Schedules Departing from CYYZ availible today
43 Schedules Today
Number of Air Canada Rouge Schedules Arriving at CYYZ availible today
44 Schedules Today
Average Landing Rate at CYYZ
-259 fpm
Air Canada Rouge Average Landing Rate at CYYZ
-82 fpm
Total Fuel Purchased at CYYZ by Air Canada Rouge
0.00 kgs / 0.00 lbs

Pilots Based at CYYZ


Pilot ID
Pilot Name
Pilot Rank
No. of Flights
No. of Flying Hours
There are no pilots assigned to this hub!   Will you be the first?
Content